Location: Владивосток
(43.1151°N, 131.8856°E)
Time: 20:34:25
(UTC+10:00)

CZ-6A DEB - Pass Details

Date: 23 December 2025
Orbit: 721 x 816 km, 98.7° (Epoch: 17 January)

Event Time Altitude Azimuth Distance (km) Brightness Sun altitude
Exits shadow 19:07:39 10° 23° (NNE) 2,241 ? -15.1°
Drops below altitude 10° 19:07:44 10° 22° (NNE) 2,259 ? -15.1°
Sets 19:10:43 0° 3° (N) 3,172 ? -15.6°
